Time,TemperatureF,DewpointF,PressureIn,WindDirection,WindDirectionDegrees,WindSpeedMPH,WindSpeedGustMPH,Humidity,HourlyPrecipIn,Conditions,Clouds,dailyrainin,SolarRadiationWatts/m^2,SoftwareType,DateUTC
2013-01-31 08:03:00,31.0,19.0,-100.00,West,261,7.0,13.0,60,0.00,,,0.00,30.000000,,2013-01-31 14:03:00,
2013-01-31 08:11:00,31.0,19.0,-100.00,West,261,7.0,13.0,60,0.00,,,0.00,30.000000,,2013-01-31 14:11:00,
2013-01-31 08:22:00,31.0,19.0,-100.00,West,261,7.0,13.0,60,0.00,,,0.00,30.000000,,2013-01-31 14:22:00,
2013-01-31 08:32:00,31.0,19.0,-100.00,West,261,7.0,13.0,60,0.00,,,0.00,30.000000,,2013-01-31 14:32:00,
2013-01-31 08:52:00,32.0,19.0,-100.00,WSW,256,7.0,17.0,59,0.00,,,0.00,127.000000,,2013-01-31 14:52:00,
2013-01-31 09:03:00,32.0,19.0,-100.00,WSW,256,7.0,17.0,59,0.00,,,0.00,127.000000,,2013-01-31 15:03:00,
2013-01-31 09:12:00,32.0,19.0,-100.00,WSW,256,7.0,17.0,59,0.00,,,0.00,127.000000,,2013-01-31 15:12:00,
2013-01-31 09:22:00,32.0,19.0,-100.00,WSW,256,7.0,17.0,59,0.00,,,0.00,127.000000,,2013-01-31 15:22:00,
2013-01-31 09:32:00,32.0,19.0,-100.00,WSW,256,7.0,17.0,59,0.00,,,0.00,127.000000,,2013-01-31 15:32:00,
2013-01-31 10:03:00,35.0,20.0,-100.00,West,261,7.0,14.0,53,0.00,,,0.00,332.000000,,2013-01-31 16:03:00,
2013-01-31 10:12:00,35.0,20.0,-100.00,West,261,7.0,14.0,53,0.00,,,0.00,332.000000,,2013-01-31 16:12:00,
2013-01-31 10:22:00,35.0,20.0,-100.00,West,261,7.0,14.0,53,0.00,,,0.00,332.000000,,2013-01-31 16:22:00,
2013-01-31 10:33:00,35.0,20.0,-100.00,West,261,7.0,14.0,53,0.00,,,0.00,332.000000,,2013-01-31 16:33:00,
2013-01-31 11:02:00,37.0,21.0,-100.00,WSW,251,7.0,18.0,52,0.00,,,0.00,470.000000,,2013-01-31 17:02:00,
2013-01-31 11:12:00,37.0,21.0,-100.00,WSW,251,7.0,18.0,52,0.00,,,0.00,470.000000,,2013-01-31 17:12:00,
2013-01-31 11:23:00,37.0,21.0,-100.00,WSW,251,7.0,18.0,52,0.00,,,0.00,470.000000,,2013-01-31 17:23:00,
2013-01-31 11:32:00,37.0,21.0,-100.00,WSW,251,7.0,18.0,52,0.00,,,0.00,470.000000,,2013-01-31 17:32:00,
2013-01-31 12:03:00,39.0,22.0,-100.00,WSW,257,7.0,16.0,50,0.00,,,0.00,512.000000,,2013-01-31 18:03:00,
2013-01-31 12:12:00,39.0,22.0,-100.00,WSW,257,7.0,16.0,50,0.00,,,0.00,512.000000,,2013-01-31 18:12:00,
2013-01-31 12:22:00,39.0,22.0,-100.00,WSW,257,7.0,16.0,50,0.00,,,0.00,512.000000,,2013-01-31 18:22:00,
2013-01-31 12:32:00,39.0,22.0,-100.00,WSW,257,7.0,16.0,50,0.00,,,0.00,512.000000,,2013-01-31 18:32:00,
2013-01-31 13:02:00,40.0,22.0,-100.00,WSW,249,8.0,17.0,48,0.00,,,0.00,642.000000,,2013-01-31 19:02:00,
2013-01-31 13:12:00,40.0,22.0,-100.00,WSW,249,8.0,17.0,48,0.00,,,0.00,642.000000,,2013-01-31 19:12:00,
2013-01-31 13:22:00,40.0,22.0,-100.00,WSW,249,8.0,17.0,48,0.00,,,0.00,642.000000,,2013-01-31 19:22:00,
2013-01-31 13:32:00,40.0,22.0,-100.00,WSW,249,8.0,17.0,48,0.00,,,0.00,642.000000,,2013-01-31 19:32:00,
2013-01-31 14:02:00,42.0,23.0,-100.00,WSW,255,8.0,19.0,47,0.00,,,0.00,592.000000,,2013-01-31 20:02:00,
2013-01-31 14:11:00,42.0,23.0,-100.00,WSW,255,8.0,19.0,47,0.00,,,0.00,592.000000,,2013-01-31 20:11:00,
2013-01-31 14:22:00,42.0,23.0,-100.00,WSW,255,8.0,19.0,47,0.00,,,0.00,592.000000,,2013-01-31 20:22:00,
2013-01-31 14:31:00,42.0,23.0,-100.00,WSW,255,8.0,19.0,47,0.00,,,0.00,592.000000,,2013-01-31 20:31:00,
2013-01-31 15:02:00,43.0,23.0,-100.00,SW,236,8.0,14.0,45,0.00,,,0.00,507.000000,,2013-01-31 21:02:00,
2013-01-31 15:12:00,43.0,23.0,-100.00,SW,236,8.0,14.0,45,0.00,,,0.00,507.000000,,2013-01-31 21:12:00,
2013-01-31 15:22:00,43.0,23.0,-100.00,SW,236,8.0,14.0,45,0.00,,,0.00,507.000000,,2013-01-31 21:22:00,
2013-01-31 15:32:00,43.0,23.0,-100.00,SW,236,8.0,14.0,45,0.00,,,0.00,507.000000,,2013-01-31 21:32:00,
2013-01-31 16:03:00,42.0,23.0,-100.00,WSW,241,6.0,17.0,46,0.00,,,0.00,180.000000,,2013-01-31 22:03:00,
2013-01-31 16:11:00,42.0,23.0,-100.00,WSW,241,6.0,17.0,46,0.00,,,0.00,180.000000,,2013-01-31 22:11:00,
2013-01-31 16:22:00,42.0,23.0,-100.00,WSW,241,6.0,17.0,46,0.00,,,0.00,180.000000,,2013-01-31 22:22:00,
2013-01-31 16:32:00,42.0,23.0,-100.00,WSW,241,6.0,17.0,46,0.00,,,0.00,180.000000,,2013-01-31 22:32:00,
2013-01-31 17:02:00,41.0,23.0,-100.00,WSW,248,7.0,16.0,49,0.00,,,0.00,43.000000,,2013-01-31 23:02:00,
2013-01-31 17:12:00,41.0,23.0,-100.00,WSW,248,7.0,16.0,49,0.00,,,0.00,43.000000,,2013-01-31 23:12:00,
2013-01-31 17:22:00,41.0,23.0,-100.00,WSW,248,7.0,16.0,49,0.00,,,0.00,43.000000,,2013-01-31 23:22:00,
2013-01-31 17:32:00,41.0,23.0,-100.00,WSW,248,7.0,16.0,49,0.00,,,0.00,43.000000,,2013-01-31 23:32:00,
2013-01-31 18:01:00,40.0,24.0,-100.00,WSW,254,5.0,14.0,53,0.00,,,0.00,13.000000,,2013-02-01 00:01:00,
2013-01-31 18:11:00,40.0,24.0,-100.00,WSW,254,5.0,14.0,53,0.00,,,0.00,13.000000,,2013-02-01 00:11:00,
2013-01-31 18:22:00,40.0,24.0,-100.00,WSW,254,5.0,14.0,53,0.00,,,0.00,13.000000,,2013-02-01 00:22:00,
2013-01-31 18:32:00,40.0,24.0,-100.00,WSW,254,5.0,14.0,53,0.00,,,0.00,13.000000,,2013-02-01 00:32:00,
2013-01-31 18:52:00,41.0,27.0,-100.00,West,262,7.0,16.0,58,0.00,,,0.00,0.000000,,2013-02-01 00:52:00,
2013-01-31 19:01:00,41.0,27.0,-100.00,West,262,7.0,16.0,58,0.00,,,0.00,0.000000,,2013-02-01 01:01:00,
2013-01-31 19:11:00,41.0,27.0,-100.00,West,262,7.0,16.0,58,0.00,,,0.00,0.000000,,2013-02-01 01:11:00,
2013-01-31 19:21:00,41.0,27.0,-100.00,West,262,7.0,16.0,58,0.00,,,0.00,0.000000,,2013-02-01 01:21:00,
2013-01-31 19:32:00,41.0,27.0,-100.00,West,262,7.0,16.0,58,0.00,,,0.00,0.000000,,2013-02-01 01:32:00,
2013-01-31 19:52:00,33.0,31.0,-100.00,WNW,284,10.0,20.0,93,0.02,,,0.02,0.000000,,2013-02-01 01:52:00,
2013-01-31 20:02:00,33.0,31.0,-100.00,WNW,284,10.0,20.0,93,0.02,,,0.02,0.000000,,2013-02-01 02:02:00,
2013-01-31 20:11:00,33.0,31.0,-100.00,WNW,284,10.0,20.0,93,0.02,,,0.02,0.000000,,2013-02-01 02:11:00,
2013-01-31 20:21:00,33.0,31.0,-100.00,WNW,284,10.0,20.0,93,0.02,,,0.02,0.000000,,2013-02-01 02:21:00,
2013-01-31 20:31:00,33.0,31.0,-100.00,WNW,284,10.0,20.0,93,0.02,,,0.02,0.000000,,2013-02-01 02:31:00,
2013-01-31 20:52:00,32.0,31.0,-100.00,WNW,288,7.0,19.0,96,0.00,,,0.02,0.000000,,2013-02-01 02:52:00,
2013-01-31 21:02:00,32.0,31.0,-100.00,WNW,288,7.0,19.0,96,0.00,,,0.02,0.000000,,2013-02-01 03:02:00,
2013-01-31 21:12:00,32.0,31.0,-100.00,WNW,288,7.0,19.0,96,0.00,,,0.02,0.000000,,2013-02-01 03:12:00,
2013-01-31 21:21:00,32.0,31.0,-100.00,WNW,288,7.0,19.0,96,0.00,,,0.02,0.000000,,2013-02-01 03:21:00,
2013-01-31 21:32:00,32.0,31.0,-100.00,WNW,288,7.0,19.0,96,0.00,,,0.02,0.000000,,2013-02-01 03:32:00,
2013-01-31 22:02:00,28.0,24.0,-100.00,WNW,291,6.0,19.0,84,0.00,,,0.02,0.000000,,2013-02-01 04:02:00,
2013-01-31 22:11:00,28.0,24.0,-100.00,WNW,291,6.0,19.0,84,0.00,,,0.02,0.000000,,2013-02-01 04:11:00,
2013-01-31 22:21:00,28.0,24.0,-100.00,WNW,291,6.0,19.0,84,0.00,,,0.02,0.000000,,2013-02-01 04:21:00,
2013-01-31 22:32:00,28.0,24.0,-100.00,WNW,291,6.0,19.0,84,0.00,,,0.02,0.000000,,2013-02-01 04:32:00,
2013-01-31 23:03:00,25.0,21.0,-100.00,NW,304,5.0,18.0,83,0.00,,,0.02,0.000000,,2013-02-01 05:03:00,
2013-01-31 23:12:00,25.0,21.0,-100.00,NW,304,5.0,18.0,83,0.00,,,0.02,0.000000,,2013-02-01 05:12:00,
2013-01-31 23:22:00,25.0,21.0,-100.00,NW,304,5.0,18.0,83,0.00,,,0.02,0.000000,,2013-02-01 05:22:00,
2013-01-31 23:32:00,25.0,21.0,-100.00,NW,304,5.0,18.0,83,0.00,,,0.02,0.000000,,2013-02-01 05:32:00,